This is the latest recevied weather packets stored in our database for station/object KA6AKH-WX. If no packets are shown the sender has not sent any weather packets the latest 10 day(s).
| Time | Temp. | Humidity | Pressure | Rain* | Wind** | Luminosity | Snow |
|---|---|---|---|---|---|---|---|
| 1788137243 | 73° F | 94% | 764.4 mmHg | 0.12 in | - | - | - |
| 1788136613 | 73° F | 91% | 764.5 mmHg | 0.12 in | - | - | - |
| 1788136013 | 74° F | 88% | 764.9 mmHg | 0.12 in | - | - | - |
| 1788134816 | 78° F | 75% | 765 mmHg | 0 in | - | - | - |
| 1788134213 | 81° F | 71% | 764.8 mmHg | 0 in | - | - | - |
| 1788133613 | 82° F | 73% | 764.3 mmHg | 0 in | - | - | - |
| 1788133013 | 83° F | 72% | 764.1 mmHg | 0 in | - | - | - |
| 1788132413 | 83° F | 70% | 764.1 mmHg | 0 in | - | - | - |
| 1788131813 | 84° F | 68% | 764 mmHg | 0 in | - | - | - |
| 1788131213 | 84° F | 67% | 764 mmHg | 0 in | - | - | - |
| 1788130613 | 84° F | 66% | 764 mmHg | 0 in | - | - | - |
| 1788130013 | 85° F | 65% | 764.1 mmHg | 0 in | - | - | - |
| 1788129413 | 85° F | 64% | 764.2 mmHg | 0 in | - | - | - |
| 1788128813 | 85° F | 63% | 763.9 mmHg | 0 in | - | - | - |
| 1788128213 | 85° F | 63% | 763.8 mmHg | 0 in | - | - | - |
| 1788127613 | 85° F | 62% | 763.7 mmHg | 0 in | - | - | - |
| 1788127013 | 86° F | 61% | 763.6 mmHg | 0 in | - | - | - |
| 1788125785 | 87° F | 59% | 763.8 mmHg | 0 in | - | - | - |
| 1788125186 | 87° F | 59% | 763.9 mmHg | 0 in | - | - | - |
| 1788124588 | 87° F | 58% | 763.8 mmHg | 0 in | - | - | - |
| 1788123983 | 87° F | 58% | 763.8 mmHg | 0 in | - | - | - |
| 1788123383 | 89° F | 56% | 763.7 mmHg | 0 in | - | - | - |
| 1788122785 | 90° F | 54% | 763.7 mmHg | 0 in | - | - | - |
| 1788122183 | 90° F | 53% | 763.9 mmHg | 0 in | - | - | - |
| 1788121583 | 90° F | 55% | 764 mmHg | 0 in | - | - | - |
* Rain latest hour (hover to see other rain measurements)
** Current wind speed in m/s (hover to see current wind gust speed)